• In Hungary
  • List of Countries
  • For 7 days
  • Water Temperature
  • Satellite Maps
  • Weather Map
  • News
  • Weather Widgets
  • user-avatar
    Login

    Hourly Weather Kokvicy

    Today, 13 November, Tuesday

    Time Temperature Precipitation Wind Pressure Humidity
    00:00 -8°C° 0 mm 4 mps 767 mmHg 40%
    01:00 -8°C° 0 mm 4 mps 767 mmHg 41%
    02:00 -8°C° 0 mm 4 mps 767 mmHg 43%
    03:00 -8°C° 0 mm 4 mps 767 mmHg 44%
    04:00 -8°C° 0 mm 4 mps 766 mmHg 46%
    05:00 -9°C° 0 mm 4 mps 766 mmHg 48%
    06:00 -9°C° 0 mm 4 mps 766 mmHg 49%
    07:00 -9°C° 0 mm 4 mps 765 mmHg 50%
    08:00 -9°C° 0 mm 4 mps 765 mmHg 51%
    09:00 -9°C° 0 mm 4 mps 765 mmHg 52%
    10:00 -8°C° 0 mm 4 mps 764 mmHg 51%
    11:00 -8°C° 0 mm 4 mps 764 mmHg 51%
    12:00 -7°C° 0 mm 4 mps 764 mmHg 50%
    13:00 -7°C° 0 mm 4 mps 763 mmHg 50%
    14:00 -7°C° 0 mm 4 mps 763 mmHg 50%
    15:00 -7°C° 0 mm 4 mps 762 mmHg 50%
    16:00 -7°C° 0 mm 4 mps 762 mmHg 49%
    17:00 -7°C° 0 mm 4 mps 761 mmHg 47%
    18:00 -7°C° 0 mm 4 mps 760 mmHg 46%
    19:00 -7°C° 0 mm 4 mps 760 mmHg 45%
    20:00 -7°C° 0 mm 4 mps 759 mmHg 44%
    21:00 -7°C° 0 mm 5 mps 759 mmHg 43%
    22:00 -7°C° 0.2 mm 5 mps 758 mmHg 52%
    23:00 -7°C° 0.2 mm 5 mps 757 mmHg 61%

    Tomorrow, 14 November, Wednesday

    Time Temperature Precipitation Wind Pressure Humidity
    00:00 -7°C° 0.2 mm 5 mps 757 mmHg 71%
    01:00 -7°C° 0.4 mm 5 mps 757 mmHg 76%
    02:00 -7°C° 0.4 mm 5 mps 756 mmHg 82%
    03:00 -7°C° 0.4 mm 5 mps 756 mmHg 87%
    04:00 -5°C° 0.3 mm 4 mps 756 mmHg 86%
    05:00 -5°C° 0.3 mm 4 mps 756 mmHg 84%
    06:00 -5°C° 0.3 mm 4 mps 756 mmHg 83%
    07:00 -5°C° 0.2 mm 4 mps 756 mmHg 83%
    08:00 -5°C° 0.2 mm 4 mps 756 mmHg 84%
    09:00 -5°C° 0.2 mm 4 mps 756 mmHg 84%
    10:00 -4°C° 0 mm 4 mps 756 mmHg 83%
    11:00 -4°C° 0 mm 4 mps 756 mmHg 82%
    12:00 -4°C° 0 mm 4 mps 756 mmHg 82%
    13:00 -4°C° 0.1 mm 3 mps 757 mmHg 83%
    14:00 -4°C° 0.1 mm 3 mps 757 mmHg 85%
    15:00 -4°C° 0.1 mm 3 mps 757 mmHg 86%
    16:00 -4°C° 0.1 mm 3 mps 758 mmHg 87%
    17:00 -4°C° 0.1 mm 3 mps 758 mmHg 88%
    18:00 -4°C° 0.1 mm 3 mps 758 mmHg 88%
    19:00 -4°C° 0.2 mm 3 mps 758 mmHg 89%
    20:00 -4°C° 0.2 mm 3 mps 759 mmHg 89%
    21:00 -4°C° 0.2 mm 3 mps 759 mmHg 90%
    22:00 -4°C° 0.1 mm 3 mps 759 mmHg 90%
    23:00 -4°C° 0.1 mm 3 mps 759 mmHg 90%

    Day after tomorrow, 15 November, Thursday

    Time Temperature Precipitation Wind Pressure Humidity
    00:00 -3°C° 0.1 mm 2 mps 760 mmHg 90%
    01:00 -3°C° 0 mm 2 mps 760 mmHg 90%
    02:00 -3°C° 0 mm 2 mps 760 mmHg 91%
    03:00 -3°C° 0 mm 2 mps 761 mmHg 91%
    04:00 -3°C° 0 mm 2 mps 761 mmHg 91%
    05:00 -3°C° 0 mm 2 mps 761 mmHg 92%
    06:00 -3°C° 0 mm 2 mps 762 mmHg 92%
    07:00 -3°C° 0 mm 2 mps 762 mmHg 92%
    08:00 -3°C° 0 mm 2 mps 762 mmHg 92%
    09:00 -2°C° 0 mm 2 mps 763 mmHg 92%
    10:00 -2°C° 0 mm 2 mps 763 mmHg 91%
    11:00 -2°C° 0 mm 2 mps 763 mmHg 91%
    12:00 -2°C° 0 mm 2 mps 764 mmHg 90%
    13:00 0°C° 0 mm 1 mps 764 mmHg 91%
    14:00 0°C° 0 mm 1 mps 764 mmHg 92%
    15:00 0°C° 0 mm 1 mps 765 mmHg 93%
    16:00 0°C° 0 mm 1 mps 765 mmHg 94%
    17:00 0°C° 0 mm 1 mps 765 mmHg 94%
    18:00 0°C° 0 mm 1 mps 766 mmHg 95%
    19:00 0°C° 0 mm 1 mps 766 mmHg 95%
    20:00 0°C° 0 mm 1 mps 766 mmHg 95%
    21:00 0°C° 0 mm 1 mps 766 mmHg 95%
    22:00 0°C° 0 mm 1 mps 766 mmHg 95%
    23:00 0°C° 0 mm 1 mps 766 mmHg 95%

    16 November, Friday

    Time Temperature Precipitation Wind Pressure Humidity
    00:00 0°C° 0 mm 1 mps 766 mmHg 95%
    01:00 0°C° 0 mm 1 mps 766 mmHg 95%
    02:00 -3°C° 0 mm 2 mps 766 mmHg 95%
    03:00 -3°C° 0 mm 2 mps 766 mmHg 95%
    04:00 -3°C° 0 mm 2 mps 766 mmHg 94%
    05:00 -3°C° 0 mm 2 mps 766 mmHg 93%
    06:00 -3°C° 0 mm 2 mps 766 mmHg 93%
    07:00 -2°C° 0 mm 2 mps 766 mmHg 92%
    08:00 -2°C° 0 mm 3 mps 765 mmHg 91%
    09:00 -2°C° 0 mm 3 mps 765 mmHg 90%
    10:00 -2°C° 0 mm 3 mps 765 mmHg 89%
    11:00 -2°C° 0 mm 3 mps 764 mmHg 88%
    12:00 -1°C° 0 mm 3 mps 764 mmHg 87%
    13:00 -2°C° 0.2 mm 4 mps 764 mmHg 88%
    14:00 -2°C° 0.2 mm 4 mps 763 mmHg 88%
    15:00 -1°C° 0.2 mm 4 mps 762 mmHg 88%
    16:00 -1°C° 0.4 mm 4 mps 762 mmHg 89%
    17:00 -1°C° 0.4 mm 4 mps 762 mmHg 89%
    18:00 -1°C° 0.4 mm 4 mps 761 mmHg 89%
    19:00 0°C° 0.1 mm 3 mps 761 mmHg 90%
    20:00 0°C° 0.1 mm 3 mps 761 mmHg 91%
    21:00 0°C° 0.1 mm 3 mps 761 mmHg 92%
    22:00 0°C° 0 mm 3 mps 761 mmHg 93%
    23:00 0°C° 0 mm 3 mps 760 mmHg 94%

    17 November, Saturday

    Time Temperature Precipitation Wind Pressure Humidity
    00:00 +1°C° 0 mm 2 mps 760 mmHg 95%
    01:00 +1°C° 0 mm 2 mps 760 mmHg 96%
    02:00 +1°C° 0 mm 2 mps 760 mmHg 96%
    03:00 +1°C° 0 mm 2 mps 760 mmHg 97%
    04:00 +1°C° 0 mm 2 mps 759 mmHg 97%
    05:00 +1°C° 0 mm 2 mps 759 mmHg 97%
    06:00 +2°C° 0 mm 1 mps 758 mmHg 98%
    07:00 +1°C° 0.1 mm 2 mps 758 mmHg 98%
    08:00 +1°C° 0.1 mm 2 mps 757 mmHg 97%
    09:00 +1°C° 0.1 mm 2 mps 756 mmHg 97%
    10:00 +1°C° 0.5 mm 2 mps 755 mmHg 97%
    11:00 +1°C° 0.5 mm 2 mps 754 mmHg 96%
    12:00 0°C° 0.5 mm 3 mps 754 mmHg 96%
    13:00 +1°C° 0.7 mm 3 mps 753 mmHg 96%
    14:00 +1°C° 0.7 mm 3 mps 752 mmHg 95%
    15:00 +1°C° 0.7 mm 3 mps 751 mmHg 95%
    16:00 +1°C° 0.4 mm 3 mps 750 mmHg 95%
    17:00 +1°C° 0.4 mm 3 mps 750 mmHg 95%
    18:00 +1°C° 0.4 mm 3 mps 749 mmHg 96%
    19:00 +1°C° 0.3 mm 3 mps 748 mmHg 96%
    20:00 +1°C° 0.3 mm 3 mps 748 mmHg 96%
    21:00 +1°C° 0.3 mm 3 mps 747 mmHg 95%
    22:00 +2°C° 0.2 mm 2 mps 747 mmHg 95%
    23:00 +2°C° 0.2 mm 2 mps 747 mmHg 95%

    18 November, Sunday

    Time Temperature Precipitation Wind Pressure Humidity
    00:00 +2°C° 0.2 mm 2 mps 747 mmHg 95%
    01:00 +2°C° 0 mm 2 mps 747 mmHg 96%
    02:00 +2°C° 0 mm 2 mps 747 mmHg 96%
    03:00 +1°C° 0 mm 2 mps 747 mmHg 97%
    04:00 +2°C° 0 mm 1 mps 747 mmHg 97%
    05:00 +2°C° 0 mm 1 mps 747 mmHg 97%
    06:00 +2°C° 0 mm 1 mps 748 mmHg 98%
    07:00 +2°C° 0 mm 1 mps 748 mmHg 97%
    08:00 +2°C° 0 mm 1 mps 749 mmHg 97%
    09:00 +2°C° 0 mm 1 mps 749 mmHg 97%
    10:00 +2°C° 0 mm 1 mps 750 mmHg 96%
    11:00 +2°C° 0 mm 1 mps 750 mmHg 96%
    12:00 +1°C° 0 mm 0 mps 751 mmHg 96%
    13:00 +2°C° 0 mm 1 mps 752 mmHg 96%
    14:00 +2°C° 0 mm 1 mps 752 mmHg 96%
    15:00 +2°C° 0 mm 1 mps 753 mmHg 96%
    16:00 +2°C° 0 mm 1 mps 754 mmHg 96%
    17:00 +2°C° 0 mm 1 mps 754 mmHg 96%
    18:00 -1°C° 0 mm 2 mps 755 mmHg 95%
    19:00 +1°C° 0.1 mm 2 mps 756 mmHg 94%
    20:00 +1°C° 0.1 mm 2 mps 757 mmHg 93%
    21:00 0°C° 0.1 mm 3 mps 757 mmHg 92%
    22:00 0°C° 0.1 mm 3 mps 758 mmHg 91%
    23:00 0°C° 0.1 mm 3 mps 759 mmHg 90%
    Show more